Home > Weather > Pirna > Past weeks

Flag for Germany Weather for the Past 2 Weeks in Pirna, Saxony, Germany

Now
64 °F

Passing clouds.


Feels Like: 64 °F
Forecast: 41 / 62 °F
Wind: 7 mph from East

Location: Dresden-Klotzsche

Current Time: Apr 30, 2016 at 3:39:16 PM

Latest Report: Apr 30, 2016 at 3:20 PM


Visibility: N/A

Pressure: 30.01 "Hg

Humidity: 28%

Dew Point: 30 °F

Location of PirnaLocation

Historic Weather in Pirna — Graph

°F

Pirna Temperature Yesterday

Maximum temperature yesterday: 57 °F (at 1:50 PM)
Minimum temperature yesterday: 32 °F (at 3:50 AM)
Average temperature yesterday: 47 °F

High & Low Weather Summary for the Past Weeks

 TemperatureHumidityPressure
High63 °F (Apr 30, 1:20 PM)100% (Apr 17, 5:20 AM)30.39 "Hg (Apr 17, 5:20 AM)
Low32 °F (Apr 24, 6:20 AM)25% (Apr 30, 2:20 PM)29.47 "Hg (Apr 26, 7:50 AM)
Average44 °F69%29.92 "Hg
* Reported Apr 15 2:20 PM — Apr 30 2:20 PM, Pirna, Weather by CustomWeather, © 2016

Note: Actual official high and low records may vary slightly from our data, if they occured in-between our weather recording intervals... More about our weather records

Advertising

Pirna Weather History for the Previous 24 Hours

Scroll right to see more
 ConditionsComfort  
Time TempWeatherWind HumidityBarometerVisibility
2:20 PM
Sat, Apr 30
63 °FPassing clouds.7 mph25%30.04 "HgN/A
1:50 PM61 °FPassing clouds.8 mph29%30.04 "HgN/A
1:20 PM63 °FPassing clouds.6 mph32%30.04 "HgN/A
12:50 PM61 °FPassing clouds.14 mph34%30.04 "HgN/A
12:20 PM61 °FPassing clouds.12 mph31%30.04 "HgN/A
11:50 AM61 °FPassing clouds.10 mph29%30.04 "HgN/A
11:20 AM59 °FPassing clouds.10 mph31%30.07 "HgN/A
10:20 AM59 °FPassing clouds.13 mph36%30.07 "HgN/A
9:50 AM57 °FSunny.10 mph39%30.07 "Hg10 mi
9:20 AM55 °FPassing clouds.8 mph41%30.07 "HgN/A
8:50 AM54 °FSunny.10 mph47%30.07 "Hg10 mi
8:20 AM52 °FSunny.10 mph47%30.07 "Hg10 mi
7:50 AM48 °FSunny.9 mph54%30.07 "Hg10 mi
7:20 AM46 °FSunny.8 mph53%30.07 "Hg10 mi
6:50 AM43 °FSunny.8 mph61%30.07 "Hg10 mi
6:20 AM39 °FClear.9 mph70%30.07 "Hg10 mi
5:50 AM41 °FClear.9 mph61%30.07 "Hg10 mi
5:20 AM41 °FClear.9 mph61%30.07 "Hg10 mi
4:20 AM43 °FClear.8 mph53%30.07 "Hg10 mi
3:50 AM43 °FClear.9 mph53%30.07 "Hg10 mi
3:20 AM43 °FClear.9 mph57%30.07 "Hg10 mi
2:50 AM43 °FClear.9 mph57%30.07 "Hg10 mi
2:20 AM43 °FClear.9 mph57%30.07 "Hg10 mi
1:50 AM43 °FClear.9 mph57%30.07 "Hg10 mi
1:20 AM43 °FClear.8 mph57%30.07 "Hg10 mi
12:50 AM43 °FClear.7 mph57%30.09 "Hg10 mi
12:20 AM45 °FClear.7 mph53%30.09 "Hg10 mi
11:50 PM
Fri, Apr 29
45 °FClear.7 mph53%30.09 "Hg10 mi
11:20 PM46 °FClear.7 mph50%30.07 "Hg10 mi
10:50 PM45 °FClear.7 mph53%30.07 "Hg10 mi
10:20 PM46 °FClear.6 mph50%30.09 "Hg10 mi
9:50 PM48 °FClear.5 mph46%30.07 "Hg10 mi
9:20 PM50 °FSunny.6 mph43%30.07 "Hg10 mi
8:50 PM50 °FSunny.5 mph43%30.07 "Hg10 mi
8:20 PM52 °FSunny.6 mph41%30.07 "Hg10 mi
7:50 PM54 °FSunny.7 mph35%30.07 "Hg10 mi
7:20 PM55 °FSunny.8 mph33%30.07 "Hg10 mi
6:50 PM55 °FPassing clouds.8 mph36%30.07 "HgN/A
6:20 PM55 °FSunny.7 mph36%30.07 "Hg10 mi
5:50 PM57 °FSunny.7 mph31%30.07 "Hg10 mi
5:20 PM55 °FSunny.10 mph31%30.07 "Hg10 mi
4:50 PM55 °FSunny.10 mph33%30.07 "Hg10 mi
4:20 PM57 °FPassing clouds.14 mph33%30.07 "HgN/A
3:50 PM55 °FSunny.13 mph33%30.09 "Hg10 mi
3:20 PM55 °FSunny.5 mph36%30.09 "Hg10 mi
Weather by CustomWeather, © 2016

See weather overviewHow to use our weather pages